(14) Irene
ephemeris date magn radius delta ra dec elong phase
Today18 Jul 202511.42.193 AU2.991 AU10h03m+18°44'31.7°14.1°
Opposition14 Jun 20269.42.447 AU1.431 AU17h34m-22°40'178.8°0.5°
(14) Irene - 2025-07-18
astro.vanbuitenen.nl


 
-1 year
-1 month
-1 day
Now
+1 day
+1 month
+1 year

The interactive orbit chart above shows the body's path through the solar system and its position at the given date. Green and blue lines are shown perpendicular to the ecliptic plane: Green if the path is above the ecliptic plane, blue if it is below. (Left-click and drag to rotate the view; Right-click and drag to move the view; Use scroll wheel to zoom in our out.)

The orbital elements of Irene are:

            e (Eccentricity)                : 0.1627056
            a (Semimajor axis)              : 2.5880494
            i (Inclination)                 : 9.12960
            Ω (Longitude of ascending node) : 86.01070
            ω (Argument of perihelion)      : 98.22480
            M (Mean anomaly)                : 325.60832
            Epoch                           : 2025 May 05

            L (Longitude of perihelion)     : 4.33956
            B (Latitude of perihelion)      : 9.03491
            P (Orbital period in years)     : 4.16            
        

The light curve chart below shows the estimated development of the minor planet's magnitude.


The all-sky chart below shows the path of the minor planet over the same period as the light curve. The current position is marked yellow.





The following chart shows the path of the minor planet in the next few days. The field of view is optimized for (~10x50) binoculars and finderscopes. A more printer-friendly version of the same chart can be found below.




Ephemerides:
Date       Time       RA (2000)    DEC (2000)    delta   radius  elong  phase   PA    magn
2025-07-18 00:00 UT   10 03 55.1   +18 44 55     2.991    2.193   31.7   14.1   100   11.4 
2025-07-18 22:54 UT   10 05 49.4   +18 34 37     2.995    2.192   31.3   13.9   100   11.4 
2025-07-19 00:00 UT   10 05 54.9   +18 34 07     2.996    2.192   31.3   13.9   100   11.4 
2025-07-20 00:00 UT   10 07 54.7   +18 23 14     3.000    2.191   30.9   13.8   100   11.4 
2025-07-21 00:00 UT   10 09 54.6   +18 12 17     3.005    2.190   30.4   13.6   100   11.4 
2025-07-22 00:00 UT   10 11 54.4   +18 01 16     3.010    2.190   30.0   13.4   100   11.4 
2025-07-23 00:00 UT   10 13 54.2   +17 50 11     3.014    2.189   29.6   13.2   100   11.4 
2025-07-24 00:00 UT   10 15 54.0   +17 39 02     3.019    2.188   29.1   13.1    99   11.4 
2025-07-25 00:00 UT   10 17 53.8   +17 27 49     3.024    2.188   28.7   12.9    99   11.4 
2025-07-26 00:00 UT   10 19 53.6   +17 16 32     3.028    2.187   28.3   12.7    99   11.4 
2025-07-27 00:00 UT   10 21 53.4   +17 05 11     3.032    2.187   27.9   12.5    99   11.4 
2025-07-28 00:00 UT   10 23 53.1   +16 53 47     3.037    2.186   27.4   12.4    99   11.4 
2025-07-29 00:00 UT   10 25 52.8   +16 42 19     3.041    2.185   27.0   12.2    99   11.4 
2025-07-30 00:00 UT   10 27 52.5   +16 30 47     3.045    2.185   26.6   12.0    99   11.4 
2025-07-31 00:00 UT   10 29 52.2   +16 19 12     3.049    2.184   26.2   11.8    98   11.4 
2025-08-01 00:00 UT   10 31 51.9   +16 07 33     3.053    2.184   25.7   11.6    98   11.4 
2025-08-02 00:00 UT   10 33 51.5   +15 55 51     3.057    2.183   25.3   11.5    98   11.4 
2025-08-03 00:00 UT   10 35 51.1   +15 44 05     3.061    2.182   24.9   11.3    98   11.4 


    Terminology:
            
    delta:  distance between minor planet and earth in AU
    radius: distance between minor planet and sun in AU
    magn:   magnitude (brightness) estimate    
    ra:     right ascension in hours (24h = 360deg)
    dec:    declination in degrees
    elong:  elongation in degrees (angle sun-earth-minor planet)    
    phase:  phase angle in degrees (angle sun-minor planet-earth)        
    AU:     Astronomical Unit (mean distance between earth and sun: 149597870.7 km
    

Orbital elements provided by the MPC (Minor Planet Center).
Calculations by a modified version of AAPlus, a C# implementation of the AA+ project by PJ Naughter from the algorithms presented in the book "Astronomical Algorithms" by Jean Meeus.
NGC2000 dso catalog and star labels from VizieR as provided by the Strasbourg astronomical Data Center.
Tycho2 catalog from the ESO archive.